Вернуться в каталог

THAICOM 3

АктивенСвязьGEO
NORAD 24768·PAYLOAD·🇹🇭 Thailand

Запущен Apr 16, 1997 с Guiana Space Centre

Loading…

TLE

СвежийSource: Space-Track

Эпоха: Sep 14, 2026, 10:41 UTC

1 24768U 97016A   26257.44529793  .00000031  00000-0  00000-0 0  9999
2 24768  13.1364  24.4851 0086922  53.8379 139.6272  0.98750646106825

Отслеживайте THAICOM 3 в реальном времени с AllMySat

Download on the App Store